[[{"header":{"parameterUnit":"m.s-1","parameterCategory":1,"la1":30.2991,"la2":30.254,"lo1":-89.0895,"lo2":-89.0444,"dy":0.0017,"dx":0.0017,"nx":28,"ny":28,"refTime":"2023-10-27T09:00:00:Z","depth":0,"parameterNumber":2,"parameterNumberName":"U-component_of_WINDS"},"data":[0,0,0,0,0,0,0,0,0,0,0,0,0,0,0,0,0,0,0,0,0,0,0,0,0,0,0,0,0,0,0,0,0,0,0,0,0,0,0,0,0,0,0,0,0,0,0,0,0,0,0,0,0,0,0,0,0,0,-4.0438,-4.0439,0,-4.0531,-4.0532,-4.0533,-4.045,-4.0446,-4.0443,-4.044,-4.0533,-4.0538,-4.0544,0,0,0,0,0,0,0,0,0,0,0,0,0,-4.019,-4.0195,-4.0438,-4.0439,-4.044,-4.0531,-4.0532,-4.0533,-4.045,-4.0446,-4.0442,-4.0438,-4.0531,-4.0538,-4.0544,0,0,0,0,0,0,0,0,0,0,0,0,0,-4.0292,-4.0196,-4.0438,-4.041,-4.0408,-4.053,-4.0532,-4.0533,-4.0451,-4.0446,-4.0441,-4.0436,-4.0529,-4.0537,-4.0545,-4.0699,0,0,-4.0571,-4.0575,0,0,0,0,0,0,0,0,-4.0286,-4.0301,-4.0413,-4.0412,-4.041,-4.0473,-4.0478,-4.0589,-4.0452,-4.0435,-4.0439,-4.0434,-4.0517,-4.0526,-4.0555,-4.0704,-4.0708,-4.0572,-4.0577,-4.0581,-4.0583,0,0,0,0,0,0,0,-4.0279,-4.0296,-4.0474,-4.0414,-4.0413,-4.0393,-4.0402,-4.0499,-4.0503,-4.0436,-4.043,-4.0442,-4.0515,-4.0547,-4.0556,-4.0709,-4.0572,-4.0579,-4.0584,-4.0588,-4.0992,-4.0997,0,0,0,0,0,0,-4.0275,-4.0291,-4.0472,-4.0477,-4.0334,-4.0402,-4.0411,-4.0458,-4.0502,-4.0504,-4.0447,-4.0438,-4.0535,-4.0546,-4.0559,-4.0743,-4.0581,-4.0589,-4.0593,-4.0986,-4.0993,-4.0999,0,0,0,0,0,0,-4.027,-4.0292,-4.0468,-4.0383,-4.0404,-4.0411,-4.0465,-4.0463,-4.0494,-4.051,-4.051,-4.0478,-4.0531,-4.0547,-4.0666,-4.0745,-4.0592,-4.06,-4.0979,-4.0988,-4.0996,-4.1112,0,0,0,0,0,0,-4.0263,-4.029,-4.0348,-4.0385,-4.0408,-4.0573,-4.0469,-4.0468,-4.0509,-4.0499,-4.0539,-4.0541,-4.0528,-4.0654,-4.0674,-4.0754,-4.0607,-4.0972,-4.0983,-4.0993,-4.1101,-4.1123,-4.1142,0,0,0,0,0,-4.0254,-4.0376,-4.0352,-4.0374,-4.0481,-4.0577,-4.0591,-4.0574,-4.0516,-4.0574,-4.0585,-4.054,-4.0734,-4.0666,-4.0689,-4.0773,-4.0967,-4.098,-4.0992,-4.1092,-4.1119,-4.1142,0,0,0,0,0,0,-4.0347,-4.038,-4.0353,-4.0491,-4.0532,-4.0563,-4.0636,-4.0604,-4.0662,-4.065,-4.0627,-4.0637,-4.0762,-4.0779,-4.0704,-4.0925,-4.0841,-4.0859,-4.0909,-4.0935,-4.0955,-4.0947,-4.0614,0,0,0,0,0,-4.0385,-4.046,-4.0485,-4.0603,-4.0626,-4.0628,-4.0669,-4.0654,-4.0695,-4.0712,-4.0731,-4.0773,-4.0844,-4.0891,-4.0956,-4.1104,-4.1112,-4.1173,-4.1194,-4.1211,-4.1226,-4.1307,-4.1335,-4.1041,-4.1041,-4.104,0,0,-4.046,-4.0488,-4.0536,-4.0623,-4.0653,-4.0732,-4.0643,-4.073,-4.0789,-4.0725,-4.0838,-4.0855,-4.09,-4.1035,-4.1095,-4.1053,-4.131,-4.1227,-4.124,-4.1246,-4.1323,-4.1351,-4.1376,-4.1049,-4.1048,-4.1046,0,0,-4.0639,-4.0668,-4.077,-4.0804,-4.0851,-4.0853,-4.0878,-4.0915,-4.0924,-4.1038,-4.0992,-4.1062,-4.1184,-4.1219,-4.1253,-4.145,-4.1411,-4.1473,-4.158,-4.1659,-4.1682,-4.1703,-4.1774,-4.1799,-4.1488,-4.1488,-4.1488,0,-4.0727,-4.0844,-4.0827,-4.0919,-4.0959,-4.0907,-4.1012,-4.1044,-4.1111,-4.114,-4.1093,-4.1247,-4.1274,-4.1416,-4.1465,-4.1494,-4.1522,-4.1466,-4.1681,-4.1701,-4.172,-4.1787,-4.1814,-4.1495,-4.1494,-4.1494,-4.1493,0,-4.0951,-4.1034,-4.1111,-4.1179,-4.1228,-4.1325,-4.1323,-4.1375,-4.1357,-4.1364,-4.1482,-4.1513,-4.1585,-4.1618,-4.16,-4.176,-4.1732,-4.1684,-4.1598,-4.1755,-4.1818,-4.1844,-4.1506,-4.1503,-4.1501,-4.1499,0,0,-4.1186,-4.1247,-4.1275,-4.1306,-4.1357,-4.1421,-4.1518,-4.159,-4.1635,-4.1684,-4.1764,-4.1871,-4.1827,-4.1866,-4.1852,-4.1922,-4.2078,-4.1865,-4.1866,-4.1903,-4.2257,-4.2292,-4.2322,-4.2053,-4.2058,-4.2062,-4.2253,0,-4.1367,-4.1535,-4.1524,-4.1682,-4.1759,-4.1714,-4.1798,-4.1839,-4.1849,-4.1916,-4.1927,-4.2003,-4.194,-4.1963,-4.2031,-4.2045,-4.2148,-4.2031,-4.2128,-4.2131,-4.2116,-4.2355,-4.2392,-4.257,-4.2277,-4.2281,-4.2284,0,-4.1598,-4.1658,-4.1824,-4.1866,-4.1898,-4.1974,-4.2041,-4.2106,-4.2152,-4.2155,-4.2201,-4.2176,-4.2275,-4.219,-4.2325,-4.2246,-4.2286,-4.2299,-4.2306,-4.2312,-4.2216,-4.2367,-4.2626,-4.2653,-4.2323,-4.232,-4.2317,0,-4.1754,-4.1875,-4.1991,-4.2019,-4.2071,-4.2126,-4.215,-4.2192,-4.2237,-4.2296,-4.2325,-4.2395,-4.2432,-4.2487,-4.2483,-4.2421,-4.2621,-4.2535,-4.2626,-4.2627,-4.2668,-4.2665,-4.2936,-4.2697,-4.2696,-4.2696,-4.2695,0,-4.1955,-4.2059,-4.2061,-4.2132,-4.2248,-4.2236,-4.235,-4.2369,-4.2407,-4.2481,-4.2447,-4.2518,-4.2508,-4.2579,-4.2577,-4.2691,-4.2708,-4.2713,-4.2711,-4.2715,-4.2715,-4.2739,-4.2726,-4.2703,-4.2701,-4.27,-4.2699,0,-4.2146,-4.2152,-4.2275,-4.2317,-4.233,-4.2413,-4.2448,-4.2516,-4.2525,-4.262,-4.2641,-4.2656,-4.2738,-4.274,-4.2834,-4.2833,-4.2972,-4.2956,-4.2956,-4.2952,-4.3044,-4.3035,-4.3339,-4.3378,-4.3114,-4.3116,-4.3118,0,-4.2273,-4.2352,-4.2403,-4.2451,-4.248,-4.2557,-4.2604,-4.2597,-4.2647,-4.2708,-4.2769,-4.2849,-4.2912,-4.3046,-4.3065,-4.3138,-4.3123,-4.3225,-4.3133,-4.3136,-4.3124,-4.3119,-4.3127,-4.3242,-4.3245,-4.3247,-4.3249,0,-4.2499,-4.2499,-4.2568,-4.264,-4.2697,-4.2752,-4.2804,-4.2845,-4.2844,-4.2902,-4.2987,-4.3037,-4.3135,-4.3215,-4.3286,-4.3311,-4.3281,-4.3278,-4.3303,-4.3307,-4.3304,-4.3307,-4.3003,-4.327,-4.3268,-4.3267,-4.3265,-4.3265,-4.2661,-4.273,-4.2778,-4.2856,-4.2895,-4.2945,-4.3012,-4.3031,-4.3102,-4.3181,-4.3173,-4.3268,-4.3316,-4.3409,-4.3441,-4.3515,-4.348,-4.3516,-4.3525,-4.3534,-4.3543,-4.3294,-4.3528,-4.3528,-4.3527,-4.3527,-4.3526,0,-4.2885,-4.2914,-4.2987,-4.3061,-4.3124,-4.3092,-4.3149,-4.3203,-4.3287,-4.3335,-4.3399,-4.3498,-4.3577,-4.3603,-4.368,-4.3735,-4.3723,-4.3755,-4.375,-4.3756,-4.357,-4.3541,-4.3763,-4.3763,-4.3763,-4.3763,-4.3763,-4.3763,-4.3008,-4.3123,-4.313,-4.3265,-4.3294,-4.3387,-4.3422,-4.3469,-4.3507,-4.3619,-4.3685,-4.3703,-4.3743,-4.3823,-4.3894,-4.39,-4.393,-4.3968,-4.3968,-4.3793,-4.3769,-4.3746,-4.3719,-4.3974,-4.3975,-4.4147,-4.4149,-4.415]},{"header":{"parameterUnit":"m.s-1","parameterCategory":1,"la1":30.2991,"la2":30.254,"lo1":-89.0895,"lo2":-89.0444,"dy":0.0017,"dx":0.0017,"nx":28,"ny":28,"refTime":"2023-10-27T09:00:00:Z","depth":0,"parameterNumber":3,"parameterNumberName":"V-component_of_WINDS"},"data":[0,0,0,0,0,0,0,0,0,0,0,0,0,0,0,0,0,0,0,0,0,0,0,0,0,0,0,0,0,0,0,0,0,0,0,0,0,0,0,0,0,0,0,0,0,0,0,0,0,0,0,0,0,0,0,0,0,0,0.9569,0.957,0,0.9692,0.9694,0.9695,0.98,0.9802,0.9803,0.9804,0.9926,0.9929,0.9931,0,0,0,0,0,0,0,0,0,0,0,0,0,0.9422,0.9424,0.9568,0.957,0.9572,0.9692,0.9694,0.9695,0.98,0.9802,0.9803,0.9804,0.9926,0.9928,0.9931,0,0,0,0,0,0,0,0,0,0,0,0,0,0.9509,0.9424,0.9568,0.9638,0.9646,0.9692,0.9694,0.9696,0.98,0.9802,0.9804,0.9805,0.9925,0.9928,0.9931,0.9916,0,0,0.9941,0.9943,0,0,0,0,0,0,0,0,0.9504,0.9514,0.9627,0.9634,0.9642,0.9733,0.9687,0.977,0.98,0.9741,0.9804,0.9806,0.986,0.9869,0.9888,0.9922,0.9927,0.9941,0.9943,0.9945,0.9946,0,0,0,0,0,0,0,0.9498,0.951,0.9617,0.9628,0.9638,0.9663,0.9678,0.9703,0.9789,0.9747,0.9755,0.9768,0.9865,0.9885,0.9892,0.9929,0.9941,0.9944,0.9946,0.9948,0.9959,0.9958,0,0,0,0,0,0,0.9481,0.9504,0.9613,0.9621,0.9576,0.9665,0.9681,0.9702,0.9789,0.9804,0.9766,0.9772,0.9878,0.9888,0.9897,0.9886,0.9945,0.9948,0.995,0.9961,0.9959,0.9957,0,0,0,0,0,0,0.9478,0.949,0.9608,0.9565,0.9582,0.9665,0.9688,0.9703,0.9724,0.9804,0.982,0.9771,0.988,0.9892,0.9911,0.9892,0.9949,0.9952,0.9963,0.996,0.9958,0.9864,0,0,0,0,0,0,0.9473,0.9488,0.9483,0.9564,0.9584,0.9621,0.9687,0.9705,0.9729,0.9738,0.9813,0.9827,0.9882,0.9906,0.9915,0.9897,0.9955,0.9965,0.9962,0.9959,0.9869,0.9859,0.9849,0,0,0,0,0,0.9467,0.945,0.9482,0.9495,0.958,0.962,0.9631,0.9697,0.9727,0.9723,0.9776,0.9824,0.9893,0.9907,0.9918,0.9901,0.9966,0.9963,0.9959,0.9873,0.9861,0.985,0,0,0,0,0,0,0.9363,0.9462,0.9499,0.9507,0.9555,0.9637,0.9634,0.9681,0.9719,0.9726,0.9805,0.982,0.9831,0.9869,0.9882,0.9893,0.9936,0.9934,0.9868,0.9856,0.9846,0.9837,0.9958,0,0,0,0,0,0.9341,0.9366,0.9451,0.9451,0.9473,0.9549,0.9569,0.9616,0.9668,0.9688,0.9742,0.9789,0.9822,0.9841,0.9875,0.9876,0.9894,0.987,0.986,0.9851,0.9849,0.9854,0.9844,0.9945,0.9945,0.9945,0,0,0.9295,0.9353,0.9363,0.9431,0.9473,0.9498,0.9565,0.9587,0.9606,0.9691,0.9713,0.9754,0.9813,0.9823,0.983,0.9854,0.9825,0.9847,0.9839,0.9841,0.9849,0.9839,0.9831,0.9942,0.9943,0.9943,0,0,0.9225,0.9271,0.9276,0.9318,0.9382,0.9434,0.9435,0.9512,0.9544,0.9568,0.9633,0.9656,0.971,0.975,0.9777,0.9725,0.9772,0.9734,0.9682,0.9687,0.9679,0.9672,0.9655,0.9647,0.9732,0.9731,0.9731,0,0.916,0.92,0.9273,0.9292,0.9321,0.9401,0.9408,0.9444,0.9515,0.9533,0.956,0.9631,0.9676,0.9698,0.9686,0.9705,0.9709,0.9725,0.9674,0.9668,0.9663,0.9647,0.964,0.9726,0.9727,0.9727,0.9728,0,0.9117,0.9144,0.9141,0.921,0.9238,0.9251,0.9326,0.9346,0.9391,0.944,0.9465,0.9522,0.957,0.9579,0.9622,0.9608,0.9621,0.9659,0.9705,0.9647,0.9634,0.9628,0.9719,0.9721,0.9722,0.9724,0,0,0.8981,0.9094,0.9091,0.9125,0.9203,0.9225,0.9242,0.9292,0.9308,0.9355,0.9371,0.9417,0.9455,0.9485,0.9534,0.9538,0.9495,0.9577,0.9579,0.956,0.9484,0.9454,0.9446,0.9528,0.9527,0.9526,0.948,0,0.8924,0.896,0.9028,0.9042,0.9069,0.9148,0.9163,0.9212,0.9259,0.9288,0.934,0.9372,0.9418,0.9438,0.9445,0.9499,0.9481,0.9503,0.9543,0.9544,0.9526,0.9439,0.9407,0.936,0.9475,0.9474,0.9473,0,0.8861,0.8906,0.8923,0.9003,0.9016,0.9029,0.9081,0.9108,0.9167,0.9201,0.9237,0.9292,0.9315,0.9357,0.939,0.9403,0.9424,0.9454,0.9454,0.9459,0.9504,0.9442,0.9347,0.934,0.9466,0.9466,0.9467,0,0.8761,0.8826,0.8846,0.8872,0.8964,0.8972,0.901,0.9071,0.9098,0.9143,0.9161,0.9208,0.9233,0.9269,0.9335,0.936,0.9361,0.9408,0.939,0.9388,0.9385,0.9384,0.9291,0.9399,0.9399,0.9399,0.9399,0,0.8689,0.8696,0.8802,0.8814,0.8826,0.8904,0.8914,0.896,0.9014,0.9036,0.9107,0.9126,0.9213,0.9243,0.9295,0.9315,0.9325,0.9354,0.9367,0.9347,0.9343,0.9361,0.9366,0.9397,0.9398,0.9398,0.9398,0,0.8578,0.8649,0.8676,0.8763,0.8786,0.879,0.8865,0.8879,0.8932,0.896,0.8971,0.9052,0.9092,0.9162,0.922,0.9255,0.9264,0.9288,0.9245,0.9253,0.9231,0.9232,0.9146,0.9139,0.925,0.9248,0.9248,0,0.8527,0.8536,0.8625,0.8646,0.8683,0.8715,0.8744,0.8822,0.8848,0.8918,0.8924,0.897,0.901,0.9068,0.9132,0.9178,0.9203,0.917,0.921,0.9191,0.9203,0.9202,0.9204,0.916,0.9159,0.9157,0.9156,0,0.843,0.8466,0.8504,0.8556,0.8588,0.8632,0.8679,0.8692,0.8782,0.8808,0.885,0.8881,0.8943,0.8987,0.9042,0.9082,0.9134,0.9144,0.9142,0.9121,0.9096,0.911,0.922,0.9145,0.9146,0.9147,0.9147,0.9148,0.8348,0.836,0.8426,0.8467,0.8512,0.8555,0.8574,0.8631,0.8667,0.8724,0.8769,0.8807,0.8869,0.8949,0.8986,0.9018,0.9042,0.9039,0.9038,0.9036,0.9028,0.9091,0.9028,0.9029,0.9029,0.9029,0.903,0,0.8255,0.8302,0.8339,0.8405,0.8438,0.8486,0.8542,0.8566,0.86,0.8653,0.8693,0.8742,0.8786,0.8855,0.8905,0.8917,0.8942,0.8927,0.8926,0.8935,0.9004,0.9001,0.8906,0.8906,0.8906,0.8906,0.8906,0.8906,0.821,0.8234,0.8277,0.8324,0.8372,0.8411,0.8439,0.848,0.8524,0.8576,0.8614,0.8659,0.872,0.8775,0.8818,0.8837,0.8852,0.8829,0.8856,0.8918,0.893,0.8941,0.8938,0.8832,0.8832,0.8785,0.8785,0.8784]}]]